Tracking 19146 objects as of 24-Apr-2018
HD Live streaming from Space Station
objects crossing your sky now

FENGYUN 1C DEB

Track FENGYUN 1C DEB now!
10-day predictions


NORAD ID: 32221
Int'l Code: 1999-025CVT
Perigee: 611.6 km
Apogee: 845.7 km
Inclination: 98.4 °
Period: 99.2 minutes
Semi major axis: 7099 km
RCS: 0.0092 m2 (small)
Launch date: May 10, 1999
Source: People's Republic of China (PRC)
Launch site: Taiyaun Space Center, China (TSC)

Note: This is SATELLITE DEBRIS
aabbcc
Your satellite tracking list
Your tracking list is empty




NASA's NSSDC Master Catalog

Two Line Element Set (TLE):
1 32221U 99025CVT 18113.49548400 +.00000103 +00000-0 +32916-4 0  9992
2 32221 098.3716 209.2582 0164874 059.8993 301.8432 14.51260445566771
Source of the keplerian elements: AFSPC